This is the latest recevied weather packets stored in our database for station/object DH4SBM. If no packets are shown the sender has not sent any weather packets the latest 10 day(s).
| Time | Temp. | Humidity | Pressure | Rain* | Wind** | Luminosity | Snow |
|---|---|---|---|---|---|---|---|
| 1788450182 | 25° C | 47% | 1020.9 hPa | 0 mm | - | 109 W/m² | - |
| 1788447183 | 25.56° C | 48% | 1021.4 hPa | 0 mm | - | 139 W/m² | - |
| 1788446583 | 25.56° C | 48% | 1021.4 hPa | 0 mm | - | 199 W/m² | - |
| 1788445983 | 25.56° C | 48% | 1021.3 hPa | 0 mm | - | 302 W/m² | - |
| 1788444182 | 25.56° C | 48% | 1021.3 hPa | 0 mm | - | 320 W/m² | - |
| 1788443582 | 25.56° C | 48% | 1021.4 hPa | 0 mm | - | 540 W/m² | - |
| 1788441181 | 25.56° C | 48% | 1021.7 hPa | 0 mm | - | 703 W/m² | - |
| 1788438782 | 24.44° C | 50% | 1021.8 hPa | 0 mm | - | 339 W/m² | - |
| 1788437580 | 24.44° C | 51% | 1022 hPa | 0 mm | - | 429 W/m² | - |
| 1788433981 | 22.78° C | 54% | 1022.6 hPa | 0 mm | - | 429 W/m² | - |
| 1788432782 | 22.78° C | 54% | 1022.7 hPa | 0 mm | - | 429 W/m² | - |
| 1788431581 | 22.78° C | 54% | 1023 hPa | 0 mm | - | 429 W/m² | - |
| 1788430981 | 22.78° C | 54% | 1023.2 hPa | 0 mm | - | 429 W/m² | - |
| 1788430379 | 22.78° C | 54% | 1023.3 hPa | 0 mm | - | 429 W/m² | - |
| 1788429781 | 22.78° C | 54% | 1023.3 hPa | 0 mm | - | 380 W/m² | - |
| 1788429181 | 22.78° C | 55% | 1023.4 hPa | 0 mm | - | 329 W/m² | - |
| 1788427980 | 23.33° C | 53% | 1023.4 hPa | 0 mm | - | 464 W/m² | - |
| 1788426779 | 21.67° C | 57% | 1023.6 hPa | 0 mm | - | 450 W/m² | - |
| 1788426181 | 21.67° C | 57% | 1023.8 hPa | 0 mm | - | 425 W/m² | - |
| 1788425581 | 21.67° C | 56% | 1023.5 hPa | 0 mm | - | 163 W/m² | - |
| 1788424380 | 21.67° C | 59% | 1023.4 hPa | 0 mm | - | 613 W/m² | - |
| 1788423780 | 21.11° C | 62% | 1023.3 hPa | 0 mm | - | 448 W/m² | - |
| 1788423180 | 20.56° C | 66% | 1023.2 hPa | 0 mm | - | 434 W/m² | - |
| 1788422580 | 19.44° C | 67% | 1023.5 hPa | 0 mm | - | 258 W/m² | - |
| 1788421979 | 19.44° C | 70% | 1023.3 hPa | 0 mm | - | 378 W/m² | - |
* Rain latest hour (hover to see other rain measurements)
** Current wind speed in m/s (hover to see current wind gust speed)